QPF
0.09 0.10 0.11 0.17 0.17 0.11 0.09 0.08 0.08 0.08 0.06 0.04 0.03 0.05 0.06 0.06 0.06 0.08 0.09 0.08 0.06 0.04 0.03 0.04 0.04 0.04 0.03 0.02 0.02 0.03 0.03 0.02 0.02 0.01 0.01 0.01 0.01 0.00 0.00 0.00 0.00 0.00 0.00
0.06 0.08 0.11 0.13 0.12 0.08 0.07 0.05 0.05 0.05 0.05 0.04 0.03 0.03 0.05 0.05 0.05 0.06 0.06 0.05 0.04 0.03 0.02 0.02 0.02 0.02 0.01 0.01 0.01 0.01 0.01 0.01 0.01 0.01 0.01 0.00 0.00 0.00 0.00 0.00 0.00 0.00 0.00
0.06 0.09 0.10 0.10 0.10 0.09 0.07 0.05 0.04 0.04 0.04 0.06 0.05 0.04 0.04 0.05 0.06 0.06 0.07 0.05 0.04 0.03 0.02 0.02 0.02 0.01 0.00 0.00 0.00 0.00 0.00 0.00 0.00 0.00 0.00 0.00 0.00 0.00 0.00 0.00 0.00 0.00 0.00
0.06 0.09 0.11 0.10 0.09 0.10 0.09 0.06 0.04 0.03 0.04 0.05 0.03 0.03 0.02 0.02 0.03 0.05 0.05 0.04 0.03 0.03 0.02 0.02 0.01 0.01 0.00 0.00 0.00 0.00 0.00 0.00 0.00 0.00 0.00 0.01 0.01 0.01 0.00 0.00 0.00 0.00 0.00
0.08 0.08 0.10 0.10 0.09 0.09 0.10 0.08 0.06 0.04 0.04 0.04 0.03 0.02 0.01 0.01 0.02 0.02 0.02 0.02 0.01 0.01 0.01 0.01 0.01 0.01 0.00 0.00 0.00 0.00 0.00 0.00 0.00 0.00 0.00 0.00 0.01 0.01 0.00 0.00 0.00 0.00 0.00
0.11 0.10 0.10 0.09 0.08 0.08 0.08 0.09 0.08 0.06 0.04 0.04 0.04 0.04 0.03 0.02 0.02 0.01 0.01 0.01 0.00 0.00 0.01 0.00 0.00 0.00 0.00 0.00 0.00 0.00 0.00 0.00 0.00 0.00 0.00 0.00 0.00 0.00 0.00 0.00 0.00 0.00 0.00
0.13 0.11 0.11 0.10 0.09 0.09 0.07 0.07 0.08 0.07 0.05 0.04 0.03 0.02 0.02 0.01 0.01 0.01 0.01 0.00 0.00 0.00 0.00 0.00 0.00 0.00 0.00 0.00 0.00 0.00 0.00 0.00 0.00 0.00 0.00 0.00 0.00 0.00 0.00 0.00 0.00 0.00 0.00
0.14 0.14 0.12 0.10 0.08 0.07 0.07 0.07 0.05 0.04 0.05 0.04 0.03 0.02 0.01 0.01 0.01 0.01 0.00 0.00 0.00 0.00 0.00 0.00 0.00 0.00 0.00 0.00 0.00 0.00 0.00 0.00 0.00 0.00 0.00 0.00 0.00 0.00 0.00 0.00 0.00 0.00 0.00
0.13 0.14 0.13 0.10 0.07 0.06 0.06 0.07 0.05 0.04 0.03 0.03 0.02 0.01 0.01 0.00 0.00 0.01 0.01 0.01 0.00 0.00 0.00 0.00 0.00 0.00 0.00 0.00 0.00 0.00 0.00 0.00 0.00 0.00 0.00 0.00 0.00 0.00 0.00 0.00 0.00 0.00 0.00
0.12 0.13 0.11 0.09 0.08 0.08 0.06 0.05 0.04 0.04 0.03 0.02 0.01 0.01 0.01 0.01 0.00 0.00 0.01 0.01 0.01 0.00 0.00 0.00 0.00 0.00 0.00 0.00 0.00 0.00 0.00 0.00 0.00 0.00 0.00 0.00 0.00 0.00 0.00 0.00 0.00 0.00 0.00
0.09 0.10 0.09 0.08 0.07 0.07 0.06 0.04 0.03 0.03 0.03 0.02 0.03 0.02 0.02 0.02 0.01 0.00 0.00 0.00 0.00 0.00 0.00 0.00 0.00 0.00 0.00 0.00 0.00 0.00 0.00 0.00 0.00 0.00 0.00 0.00 0.00 0.00 0.00 0.00 0.00 0.00 0.00
0.07 0.08 0.07 0.06 0.06 0.05 0.04 0.03 0.02 0.02 0.02 0.02 0.02 0.02 0.02 0.02 0.01 0.01 0.00 0.00 0.00 0.00 0.00 0.00 0.00 0.00 0.00 0.00 0.00 0.00 0.00 0.00 0.00 0.00 0.00 0.00 0.00 0.00 0.00 0.00 0.00 0.00 0.00
0.06 0.07 0.06 0.05 0.03 0.03 0.03 0.02 0.01 0.01 0.00 0.01 0.01 0.01 0.01 0.01 0.01 0.00 0.00 0.00 0.00 0.00 0.00 0.00 0.00 0.00 0.00 0.00 0.00 0.00 0.00 0.00 0.00 0.00 0.00 0.00 0.00 0.00 0.00 0.00 0.00 0.00 0.00
0.05 0.05 0.05 0.04 0.03 0.02 0.02 0.01 0.01 0.00 0.00 0.00 0.01 0.01 0.01 0.00 0.00 0.00 0.00 0.00 0.00 0.00 0.00 0.00 0.00 0.00 0.00 0.00 0.00 0.00 0.00 0.00 0.00 0.00 0.00 0.00 0.00 0.00 0.00 0.00 0.00 0.00 0.00
0.03 0.04 0.03 0.03 0.02 0.01 0.01 0.01 0.01 0.01 0.00 0.00 0.00 0.00 0.00 0.00 0.00 0.00 0.00 0.00 0.00 0.00 0.00 0.00 0.00 0.00 0.00 0.00 0.00 0.00 0.00 0.00 0.00 0.00 0.00 0.00 0.00 0.00 0.00 0.00 0.00 0.00 0.00
0.02 0.02 0.02 0.02 0.01 0.01 0.01 0.00 0.00 0.00 0.00 0.00 0.00 0.00 0.00 0.00 0.00 0.00 0.00 0.00 0.00 0.00 0.00 0.00 0.00 0.00 0.00 0.00 0.00 0.00 0.00 0.00 0.00 0.00 0.00 0.00 0.00 0.00 0.00 0.00 0.00 0.00 0.00
0.01 0.00 0.00 0.00 0.00 0.00 0.00 0.00 0.00 0.00 0.00 0.00 0.00 0.00 0.00 0.00 0.00 0.00 0.00 0.00 0.00 0.00 0.00 0.00 0.00 0.00 0.00 0.00 0.00 0.00 0.00 0.00 0.00 0.00 0.00 0.00 0.00 0.00 0.00 0.00 0.00 0.00 0.00
0.00 0.00 0.00 0.00 0.00 0.00 0.00 0.00 0.00 0.00 0.00 0.00 0.00 0.00 0.00 0.00 0.00 0.00 0.00 0.00 0.00 0.00 0.00 0.00 0.00 0.00 0.00 0.00 0.00 0.00 0.00 0.00 0.00 0.00 0.00 0.00 0.00 0.00 0.00 0.00 0.00 0.00 0.00
0.00 0.00 0.00 0.00 0.00 0.00 0.00 0.00 0.00 0.00 0.00 0.00 0.00 0.00 0.00 0.00 0.00 0.00 0.00 0.00 0.00 0.00 0.00 0.00 0.00 0.00 0.00 0.00 0.00 0.00 0.00 0.00 0.00 0.00 0.00 0.00 0.00 0.00 0.00 0.00 0.00 0.00 0.00
0.00 0.00 0.00 0.00 0.00 0.00 0.00 0.00 0.00 0.00 0.00 0.00 0.00 0.00 0.00 0.00 0.00 0.00 0.00 0.00 0.00 0.00 0.00 0.00 0.00 0.00 0.00 0.00 0.00 0.00 0.00 0.00 0.00 0.00 0.00 0.00 0.00 0.00 0.00 0.00 0.00 0.00 0.00
0.00 0.00 0.00 0.00 0.00 0.00 0.00 0.00 0.00 0.00 0.00 0.00 0.00 0.00 0.00 0.00 0.00 0.00 0.00 0.00 0.00 0.00 0.00 0.00 0.00 0.00 0.00 0.00 0.00 0.00 0.00 0.00 0.00 0.00 0.00 0.00 0.00 0.00 0.00 0.00 0.00 0.00 0.00
0.00 0.00 0.00 0.00 0.00 0.00 0.00 0.00 0.00 0.00 0.00 0.00 0.00 0.00 0.00 0.00 0.00 0.00 0.00 0.00 0.00 0.00 0.00 0.00 0.00 0.00 0.00 0.00 0.00 0.00 0.00 0.00 0.00 0.00 0.00 0.00 0.00 0.00 0.00 0.00 0.00 0.00 0.00
0.00 0.00 0.00 0.00 0.00 0.00 0.00 0.00 0.00 0.00 0.00 0.00 0.00 0.00 0.00 0.00 0.00 0.00 0.00 0.00 0.00 0.00 0.00 0.00 0.00 0.00 0.00 0.00 0.00 0.00 0.00 0.00 0.00 0.00 0.00 0.00 0.00 0.00 0.00 0.00 0.00 0.00 0.00
0.00 0.00 0.00 0.00 0.00 0.00 0.00 0.00 0.00 0.00 0.00 0.00 0.00 0.00 0.00 0.00 0.00 0.00 0.00 0.00 0.00 0.00 0.00 0.00 0.00 0.00 0.00 0.00 0.00 0.00 0.00 0.00 0.00 0.00 0.00 0.00 0.00 0.00 0.00 0.00 0.00 0.00 0.00
0.00 0.00 0.00 0.00 0.00 0.00 0.00 0.00 0.00 0.00 0.00 0.00 0.00 0.00 0.00 0.00 0.00 0.00 0.00 0.00 0.00 0.00 0.00 0.00 0.00 0.00 0.00 0.00 0.00 0.00 0.00 0.00 0.00 0.00 0.00 0.00 0.00 0.00 0.00 0.00 0.00 0.00 0.00
0.00 0.00 0.00 0.00 0.00 0.00 0.00 0.00 0.00 0.00 0.00 0.00 0.00 0.00 0.00 0.00 0.00 0.00 0.00 0.00 0.00 0.00 0.00 0.00 0.00 0.00 0.00 0.00 0.00 0.00 0.00 0.00 0.00 0.00 0.00 0.00 0.00 0.00 0.00 0.00 0.00 0.00 0.00
MSLP
1013.38 1013.86 1014.47 1015.14 1015.79 1016.35 1016.79 1017.09 1017.26 1017.34 1017.38 1017.43 1017.53 1017.73 1018.03 1018.42 1018.89 1019.39 1019.91 1020.38 1020.80 1021.16 1021.47 1021.73 1022.00 1022.29 1022.66 1023.11 1023.66 1024.30 1024.99 1025.71 1026.38 1026.98 1027.45 1027.77 1027.93 1027.94 1027.84 1027.67 1027.46 1027.27 1027.12
1013.89 1014.35 1014.94 1015.58 1016.21 1016.76 1017.19 1017.51 1017.71 1017.83 1017.92 1018.02 1018.18 1018.43 1018.77 1019.19 1019.68 1020.19 1020.69 1021.16 1021.55 1021.88 1022.14 1022.36 1022.57 1022.82 1023.12 1023.52 1024.02 1024.61 1025.26 1025.94 1026.58 1027.15 1027.60 1027.89 1028.02 1028.01 1027.87 1027.66 1027.41 1027.17 1026.97
1014.51 1014.94 1015.47 1016.06 1016.64 1017.15 1017.58 1017.90 1018.13 1018.30 1018.45 1018.61 1018.84 1019.14 1019.52 1019.98 1020.48 1021.00 1021.50 1021.95 1022.33 1022.64 1022.88 1023.08 1023.27 1023.48 1023.75 1024.10 1024.55 1025.09 1025.68 1026.30 1026.89 1027.41 1027.82 1028.07 1028.18 1028.14 1027.97 1027.72 1027.44 1027.15 1026.91
1015.22 1015.60 1016.08 1016.60 1017.12 1017.59 1017.99 1018.31 1018.58 1018.80 1019.01 1019.25 1019.54 1019.89 1020.31 1020.79 1021.30 1021.81 1022.30 1022.74 1023.11 1023.41 1023.64 1023.83 1024.01 1024.21 1024.45 1024.77 1025.17 1025.64 1026.16 1026.71 1027.23 1027.69 1028.04 1028.26 1028.34 1028.28 1028.10 1027.84 1027.53 1027.21 1026.93
1015.98 1016.32 1016.74 1017.20 1017.66 1018.08 1018.47 1018.80 1019.10 1019.37 1019.65 1019.96 1020.30 1020.70 1021.15 1021.63 1022.13 1022.62 1023.09 1023.50 1023.86 1024.15 1024.38 1024.57 1024.75 1024.94 1025.16 1025.44 1025.78 1026.18 1026.63 1027.09 1027.53 1027.91 1028.21 1028.39 1028.44 1028.38 1028.20 1027.95 1027.65 1027.33 1027.03
1016.76 1017.07 1017.44 1017.85 1018.26 1018.66 1019.03 1019.38 1019.72 1020.04 1020.38 1020.74 1021.13 1021.55 1022.00 1022.47 1022.95 1023.40 1023.83 1024.22 1024.55 1024.83 1025.06 1025.25 1025.43 1025.61 1025.81 1026.05 1026.33 1026.65 1027.00 1027.37 1027.71 1028.02 1028.26 1028.40 1028.44 1028.39 1028.24 1028.02 1027.75 1027.46 1027.16
1017.54 1017.84 1018.19 1018.56 1018.94 1019.32 1019.70 1020.07 1020.43 1020.80 1021.18 1021.58 1021.99 1022.42 1022.86 1023.29 1023.72 1024.13 1024.51 1024.86 1025.16 1025.43 1025.66 1025.86 1026.03 1026.21 1026.38 1026.57 1026.79 1027.02 1027.27 1027.53 1027.78 1028.00 1028.18 1028.29 1028.32 1028.29 1028.18 1028.01 1027.79 1027.55 1027.28
1018.31 1018.62 1018.95 1019.31 1019.68 1020.06 1020.44 1020.83 1021.22 1021.62 1022.03 1022.44 1022.85 1023.26 1023.66 1024.05 1024.43 1024.78 1025.11 1025.41 1025.69 1025.94 1026.17 1026.37 1026.55 1026.71 1026.86 1027.00 1027.15 1027.30 1027.45 1027.60 1027.75 1027.89 1028.00 1028.07 1028.10 1028.09 1028.02 1027.91 1027.75 1027.57 1027.35
1019.06 1019.39 1019.74 1020.10 1020.46 1020.84 1021.23 1021.62 1022.03 1022.44 1022.86 1023.26 1023.66 1024.03 1024.39 1024.72 1025.04 1025.33 1025.61 1025.88 1026.14 1026.38 1026.61 1026.82 1026.99 1027.15 1027.27 1027.37 1027.45 1027.51 1027.57 1027.63 1027.68 1027.74 1027.78 1027.82 1027.84 1027.84 1027.80 1027.74 1027.64 1027.51 1027.34
1019.80 1020.15 1020.51 1020.88 1021.25 1021.63 1022.02 1022.42 1022.83 1023.23 1023.63 1024.02 1024.38 1024.71 1025.02 1025.30 1025.56 1025.81 1026.05 1026.29 1026.53 1026.77 1027.00 1027.21 1027.39 1027.53 1027.64 1027.70 1027.72 1027.72 1027.70 1027.67 1027.64 1027.62 1027.60 1027.60 1027.60 1027.59 1027.58 1027.54 1027.48 1027.38 1027.25
1020.53 1020.90 1021.27 1021.65 1022.02 1022.40 1022.78 1023.17 1023.57 1023.95 1024.33 1024.68 1025.00 1025.29 1025.55 1025.78 1026.00 1026.22 1026.43 1026.66 1026.89 1027.13 1027.36 1027.58 1027.76 1027.89 1027.98 1028.01 1027.99 1027.93 1027.85 1027.75 1027.66 1027.58 1027.51 1027.47 1027.43 1027.41 1027.39 1027.35 1027.30 1027.21 1027.10
1021.22 1021.61 1021.99 1022.36 1022.74 1023.11 1023.48 1023.86 1024.23 1024.59 1024.93 1025.25 1025.53 1025.78 1026.01 1026.21 1026.40 1026.59 1026.80 1027.01 1027.24 1027.48 1027.71 1027.92 1028.09 1028.22 1028.29 1028.29 1028.25 1028.16 1028.04 1027.90 1027.76 1027.64 1027.53 1027.44 1027.37 1027.32 1027.26 1027.20 1027.13 1027.03 1026.90
1021.87 1022.26 1022.64 1023.01 1023.38 1023.74 1024.11 1024.46 1024.81 1025.14 1025.45 1025.74 1025.99 1026.21 1026.41 1026.60 1026.78 1026.96 1027.16 1027.37 1027.59 1027.82 1028.03 1028.23 1028.39 1028.50 1028.55 1028.54 1028.48 1028.37 1028.23 1028.08 1027.93 1027.78 1027.65 1027.53 1027.42 1027.32 1027.22 1027.11 1026.99 1026.86 1026.69
1022.45 1022.83 1023.21 1023.58 1023.94 1024.29 1024.64 1024.98 1025.30 1025.61 1025.90 1026.16 1026.40 1026.61 1026.80 1026.98 1027.15 1027.33 1027.52 1027.72 1027.93 1028.13 1028.32 1028.49 1028.62 1028.70 1028.73 1028.71 1028.65 1028.54 1028.41 1028.27 1028.12 1027.97 1027.83 1027.69 1027.55 1027.40 1027.25 1027.09 1026.91 1026.71 1026.49
1022.94 1023.31 1023.69 1024.05 1024.40 1024.75 1025.09 1025.42 1025.73 1026.03 1026.30 1026.55 1026.77 1026.98 1027.17 1027.35 1027.53 1027.71 1027.88 1028.07 1028.24 1028.41 1028.56 1028.69 1028.78 1028.82 1028.83 1028.80 1028.74 1028.65 1028.54 1028.42 1028.30 1028.17 1028.03 1027.88 1027.72 1027.54 1027.33 1027.11 1026.86 1026.60 1026.32
1023.34 1023.71 1024.07 1024.43 1024.79 1025.14 1025.47 1025.80 1026.10 1026.39 1026.66 1026.90 1027.13 1027.34 1027.53 1027.71 1027.89 1028.06 1028.22 1028.38 1028.52 1028.64 1028.74 1028.81 1028.85 1028.86 1028.84 1028.80 1028.75 1028.69 1028.61 1028.53 1028.45 1028.35 1028.23 1028.09 1027.91 1027.69 1027.44 1027.16 1026.85 1026.52 1026.19
1023.66 1024.02 1024.39 1024.76 1025.12 1025.47 1025.81 1026.13 1026.44 1026.72 1026.98 1027.23 1027.46 1027.67 1027.87 1028.05 1028.22 1028.38 1028.52 1028.64 1028.73 1028.80 1028.85 1028.86 1028.86 1028.83 1028.80 1028.76 1028.72 1028.68 1028.65 1028.61 1028.57 1028.51 1028.41 1028.27 1028.08 1027.84 1027.55 1027.22 1026.86 1026.48 1026.10
1023.91 1024.28 1024.65 1025.03 1025.40 1025.76 1026.11 1026.43 1026.73 1027.01 1027.27 1027.51 1027.74 1027.95 1028.15 1028.33 1028.49 1028.63 1028.74 1028.83 1028.88 1028.90 1028.89 1028.87 1028.82 1028.77 1028.73 1028.70 1028.68 1028.67 1028.68 1028.69 1028.68 1028.65 1028.57 1028.43 1028.24 1027.97 1027.65 1027.28 1026.87 1026.45 1026.03
1024.11 1024.49 1024.88 1025.27 1025.65 1026.02 1026.37 1026.69 1026.99 1027.26 1027.51 1027.74 1027.96 1028.16 1028.35 1028.52 1028.67 1028.79 1028.87 1028.93 1028.95 1028.93 1028.89 1028.84 1028.77 1028.72 1028.68 1028.66 1028.67 1028.70 1028.74 1028.78 1028.80 1028.79 1028.72 1028.58 1028.36 1028.07 1027.72 1027.31 1026.87 1026.42 1025.98
1024.27 1024.67 1025.07 1025.47 1025.87 1026.23 1026.58 1026.89 1027.18 1027.43 1027.67 1027.89 1028.09 1028.28 1028.45 1028.61 1028.74 1028.84 1028.91 1028.94 1028.94 1028.90 1028.85 1028.79 1028.73 1028.68 1028.66 1028.67 1028.71 1028.78 1028.85 1028.91 1028.95 1028.93 1028.85 1028.69 1028.45 1028.13 1027.75 1027.31 1026.85 1026.38 1025.93
1024.41 1024.82 1025.23 1025.64 1026.03 1026.39 1026.72 1027.02 1027.28 1027.52 1027.74 1027.94 1028.12 1028.29 1028.45 1028.58 1028.70 1028.78 1028.84 1028.86 1028.85 1028.81 1028.76 1028.71 1028.68 1028.66 1028.67 1028.72 1028.79 1028.89 1028.98 1029.06 1029.09 1029.07 1028.97 1028.78 1028.50 1028.15 1027.73 1027.27 1026.79 1026.31 1025.85
1024.52 1024.94 1025.35 1025.74 1026.12 1026.46 1026.77 1027.04 1027.28 1027.49 1027.69 1027.87 1028.03 1028.18 1028.32 1028.44 1028.55 1028.62 1028.67 1028.68 1028.68 1028.65 1028.63 1028.60 1028.60 1028.62 1028.68 1028.77 1028.88 1029.00 1029.11 1029.19 1029.22 1029.17 1029.04 1028.82 1028.50 1028.12 1027.67 1027.18 1026.69 1026.20 1025.75
1024.60 1025.00 1025.39 1025.76 1026.11 1026.42 1026.69 1026.94 1027.15 1027.34 1027.51 1027.67 1027.82 1027.96 1028.09 1028.20 1028.29 1028.36 1028.40 1028.42 1028.43 1028.42 1028.42 1028.43 1028.47 1028.53 1028.63 1028.76 1028.91 1029.05 1029.18 1029.26 1029.27 1029.21 1029.05 1028.79 1028.45 1028.03 1027.57 1027.07 1026.57 1026.08 1025.64
1024.63 1025.01 1025.36 1025.69 1025.99 1026.26 1026.50 1026.71 1026.89 1027.06 1027.22 1027.37 1027.51 1027.64 1027.76 1027.87 1027.95 1028.02 1028.06 1028.08 1028.10 1028.11 1028.13 1028.18 1028.25 1028.35 1028.50 1028.66 1028.84 1029.00 1029.14 1029.22 1029.23 1029.15 1028.98 1028.71 1028.35 1027.92 1027.44 1026.95 1026.45 1025.98 1025.54
1024.62 1024.94 1025.24 1025.51 1025.76 1025.98 1026.18 1026.36 1026.52 1026.68 1026.83 1026.98 1027.12 1027.25 1027.37 1027.47 1027.56 1027.62 1027.66 1027.68 1027.70 1027.73 1027.77 1027.83 1027.93 1028.07 1028.24 1028.43 1028.64 1028.83 1028.98 1029.07 1029.08 1029.01 1028.83 1028.56 1028.20 1027.79 1027.32 1026.84 1026.36 1025.91 1025.49
1024.54 1024.80 1025.04 1025.25 1025.44 1025.61 1025.77 1025.92 1026.07 1026.22 1026.36 1026.51 1026.66 1026.80 1026.93 1027.03 1027.12 1027.18 1027.21 1027.24 1027.26 1027.28 1027.33 1027.41 1027.52 1027.68 1027.87 1028.09 1028.31 1028.51 1028.68 1028.79 1028.83 1028.77 1028.61 1028.36 1028.04 1027.65 1027.22 1026.77 1026.32 1025.89 1025.50
Thickness
5604 5606 5607 5608 5608 5609 5609 5610 5611 5611 5613 5614 5615 5618 5620 5622 5623 5625 5624 5623 5623 5621 5621 5621 5619 5618 5616 5613 5610 5607 5604 5600 5592 5580 5576 5573 5571 5569 5566 5563 5560 5557 5554
5593 5594 5596 5596 5598 5598 5598 5599 5600 5601 5602 5604 5606 5607 5609 5610 5611 5613 5612 5612 5611 5610 5609 5609 5607 5606 5604 5602 5599 5596 5593 5589 5585 5575 5568 5565 5562 5559 5556 5554 5551 5548 5545
5582 5583 5585 5585 5586 5587 5587 5588 5590 5591 5592 5593 5595 5596 5597 5598 5599 5600 5600 5600 5599 5598 5598 5598 5596 5595 5593 5591 5588 5585 5581 5577 5573 5568 5560 5554 5551 5548 5546 5543 5541 5538 5536
5572 5573 5574 5574 5575 5576 5577 5578 5579 5580 5581 5582 5583 5585 5586 5587 5587 5588 5588 5588 5587 5587 5586 5585 5584 5583 5582 5580 5577 5573 5570 5565 5561 5556 5550 5545 5541 5538 5535 5533 5531 5528 5526
5561 5562 5563 5563 5564 5565 5566 5566 5567 5568 5569 5570 5572 5573 5574 5576 5576 5576 5576 5576 5576 5575 5574 5573 5572 5571 5570 5569 5566 5562 5558 5554 5549 5544 5539 5535 5532 5529 5526 5522 5521 5518 5516
5551 5552 5552 5553 5554 5554 5555 5555 5556 5556 5557 5559 5560 5561 5562 5563 5564 5564 5564 5564 5563 5563 5561 5560 5560 5559 5558 5557 5554 5551 5548 5544 5539 5534 5529 5527 5523 5519 5515 5513 5511 5511 5510
5541 5543 5543 5544 5544 5544 5544 5544 5544 5545 5546 5546 5547 5549 5549 5550 5552 5553 5553 5552 5551 5550 5549 5549 5548 5547 5546 5544 5542 5539 5536 5533 5530 5526 5522 5518 5515 5512 5509 5507 5504 5502 5501
5533 5534 5534 5534 5534 5534 5534 5533 5534 5535 5535 5535 5536 5538 5539 5539 5541 5542 5541 5541 5539 5538 5537 5537 5536 5535 5534 5533 5531 5528 5525 5522 5519 5517 5514 5511 5508 5505 5503 5500 5497 5495 5494
5525 5525 5525 5526 5526 5525 5524 5524 5524 5525 5525 5525 5527 5528 5529 5529 5531 5532 5532 5530 5527 5526 5526 5526 5526 5524 5523 5523 5521 5518 5515 5512 5511 5509 5507 5505 5503 5501 5497 5495 5493 5493 5493
5517 5517 5517 5517 5517 5516 5516 5515 5516 5517 5517 5518 5518 5519 5520 5520 5521 5522 5522 5520 5518 5516 5516 5515 5515 5515 5513 5512 5511 5508 5506 5503 5502 5501 5500 5499 5497 5495 5493 5490 5489 5488 5487
5510 5510 5510 5510 5509 5509 5509 5509 5509 5510 5510 5510 5510 5510 5510 5511 5512 5512 5513 5512 5510 5508 5507 5506 5506 5505 5505 5503 5502 5500 5498 5496 5495 5494 5493 5493 5492 5490 5488 5486 5485 5483 5483
5504 5503 5503 5503 5503 5503 5503 5503 5503 5503 5503 5502 5502 5501 5501 5502 5503 5504 5504 5504 5502 5501 5499 5498 5498 5498 5497 5496 5495 5494 5492 5491 5490 5489 5488 5487 5486 5485 5484 5483 5483 5482 5480
5498 5497 5497 5497 5497 5498 5498 5497 5496 5496 5497 5496 5496 5495 5494 5494 5495 5495 5496 5496 5495 5494 5493 5492 5492 5492 5491 5490 5489 5488 5487 5486 5484 5483 5482 5481 5479 5479 5479 5480 5480 5480 5480
5493 5492 5492 5492 5492 5492 5492 5492 5492 5491 5491 5491 5490 5489 5488 5488 5488 5488 5488 5488 5488 5488 5487 5487 5486 5486 5485 5484 5483 5481 5480 5479 5478 5477 5476 5475 5475 5476 5476 5476 5476 5476 5477
5489 5488 5487 5487 5487 5486 5486 5486 5487 5487 5488 5488 5486 5485 5484 5484 5483 5483 5483 5483 5483 5483 5482 5482 5482 5481 5480 5478 5477 5476 5475 5474 5473 5472 5471 5471 5471 5472 5472 5472 5471 5472 5473
5486 5484 5483 5483 5483 5483 5483 5482 5482 5484 5484 5484 5483 5482 5481 5480 5480 5479 5480 5480 5480 5480 5479 5477 5476 5475 5474 5473 5472 5471 5470 5469 5468 5468 5467 5467 5467 5468 5468 5468 5469 5469 5471
5485 5483 5482 5481 5481 5481 5481 5482 5480 5479 5480 5480 5479 5479 5479 5478 5477 5477 5477 5477 5477 5476 5475 5473 5472 5471 5470 5469 5468 5467 5467 5465 5464 5464 5464 5464 5464 5465 5465 5466 5467 5468 5470
5484 5483 5482 5481 5480 5480 5479 5479 5479 5479 5478 5476 5476 5477 5476 5476 5476 5475 5475 5475 5474 5473 5472 5471 5469 5468 5467 5466 5465 5464 5463 5462 5462 5461 5461 5461 5461 5462 5463 5464 5465 5466 5468
5485 5483 5482 5481 5480 5479 5479 5478 5478 5478 5477 5476 5476 5475 5475 5475 5475 5474 5474 5473 5473 5472 5470 5469 5468 5467 5465 5464 5463 5462 5461 5460 5460 5459 5459 5459 5459 5460 5462 5463 5464 5465 5467
5485 5484 5483 5482 5481 5480 5479 5479 5478 5478 5477 5477 5477 5476 5476 5476 5476 5475 5474 5473 5473 5472 5470 5469 5467 5466 5465 5463 5462 5461 5460 5459 5459 5458 5458 5458 5459 5460 5461 5463 5465 5467 5469
5487 5486 5485 5484 5483 5482 5482 5481 5480 5480 5479 5479 5479 5478 5478 5478 5477 5477 5476 5475 5474 5473 5471 5469 5468 5467 5465 5463 5462 5461 5460 5459 5459 5458 5458 5459 5460 5461 5462 5464 5466 5468 5470
5490 5488 5487 5487 5486 5485 5485 5484 5484 5483 5483 5483 5482 5482 5481 5480 5480 5479 5479 5478 5477 5475 5473 5472 5470 5468 5467 5465 5464 5463 5462 5461 5460 5460 5460 5460 5461 5462 5464 5466 5468 5470 5472
5493 5492 5491 5490 5490 5489 5489 5488 5488 5487 5487 5487 5486 5486 5486 5485 5484 5483 5483 5482 5480 5479 5477 5475 5473 5472 5470 5468 5467 5465 5464 5464 5463 5462 5461 5462 5463 5464 5465 5467 5469 5471 5473
5498 5497 5496 5495 5494 5494 5493 5493 5492 5492 5492 5492 5491 5491 5490 5490 5489 5488 5488 5486 5485 5483 5481 5479 5477 5476 5474 5472 5470 5469 5468 5466 5465 5464 5463 5463 5464 5466 5467 5469 5470 5472 5473
5503 5502 5502 5501 5500 5499 5499 5498 5498 5498 5497 5497 5497 5496 5496 5495 5494 5493 5492 5491 5489 5488 5486 5484 5482 5480 5478 5476 5474 5473 5471 5470 5468 5467 5466 5465 5466 5467 5468 5470 5471 5472 5472
5510 5509 5508 5507 5506 5506 5505 5505 5504 5504 5503 5503 5502 5502 5501 5500 5500 5499 5498 5496 5494 5493 5491 5489 5487 5485 5483 5481 5479 5477 5475 5473 5472 5470 5469 5468 5468 5469 5469 5470 5471 5471 5471